CW3363 Weather Reports


Display with metric or nautical units.
time (UTC)temp
F
wind
direction
speed
MPH
gust
MPH
rain 1hr
in
rain 24hr
in
rain mn
in
humidity
%
barometer
mb
20260506150834 81 127 4.0 7.0 0.00 0.00 0.00 86 1010.3
20260506150339 80 137 3.0 7.0 0.00 0.00 0.00 86 1010.2
20260506145826 80 131 5.0 8.0 0.00 0.00 0.00 87 1010.2
20260506145331 80 120 3.0 8.0 0.00 0.00 0.00 87 1010.2
20260506144836 80 141 6.0 8.0 0.00 0.00 0.00 87 1010.0
20260506144341 80 149 5.0 7.0 0.00 0.00 0.00 88 1010.0
20260506143826 79 208 3.0 7.0 0.00 0.00 0.00 89 1010.0
20260506143331 79 154 4.0 10.0 0.00 0.00 0.00 89 1009.9
20260506142835 79 113 4.0 12.0 0.00 0.00 0.00 89 1009.9
20260506142324 79 129 5.0 12.0 0.00 0.00 0.00 90 1009.9
20260506141830 79 139 3.0 7.0 0.00 0.00 0.00 90 1010.0
20260506141335 78 119 2.0 10.0 0.00 0.00 0.00 91 1010.0
20260506140823 78 199 5.0 10.0 0.00 0.00 0.00 91 1010.0
20260506140328 78 139 6.0 9.0 0.00 0.00 0.00 91 1010.1
20260506135832 78 97 2.0 6.0 0.00 0.00 0.00 92 1010.1
20260506135338 78 148 2.0 6.0 0.00 0.00 0.00 92 1010.1
20260506134823 78 151 3.0 6.0 0.00 0.00 0.00 92 1010.1
20260506134328 77 129 3.0 6.0 0.00 0.00 0.00 93 1010.1
20260506133834 77 116 4.0 7.0 0.00 0.00 0.00 93 1010.1
20260506133400 77 155 4.0 7.0 0.00 0.00 0.00 93 1010.2
20260506132826 77 134 4.0 8.0 0.00 0.00 0.00 93 1010.2
20260506132332 77 134 4.0 8.0 0.00 0.00 0.00 93 1010.2
20260506131839 77 137 4.0 8.0 0.00 0.00 0.00 93 1010.2
20260506131326 77 150 3.0 9.0 0.00 0.00 0.00 93 1010.2
20260506130852 77 188 3.0 9.0 0.00 0.00 0.00 93 1010.2
20260506130337 77 134 2.0 6.0 0.00 0.00 0.00 93 1010.2
20260506125901 77 170 4.0 9.0 0.00 0.00 0.00 94 1010.2
20260506125325 77 158 3.0 9.0 0.00 0.00 0.00 94 1010.2
20260506124829 77 191 2.0 6.0 0.00 0.00 0.00 94 1010.1
20260506124357 76 160 3.0 6.0 0.00 0.00 0.00 94 1010.1
20260506123823 76 154 2.0 6.0 0.00 0.00 0.00 94 1010.1
20260506123329 76 177 3.0 4.0 0.00 0.00 0.00 94 1010.0
20260506122838 76 191 2.0 5.0 0.00 0.00 0.00 95 1010.0
20260506122325 76 167 2.0 5.0 0.00 0.00 0.00 95 1010.0
20260506121852 76 191 2.0 5.0 0.00 0.00 0.00 95 1009.9
20260506121337 76 143 2.0 5.0 0.00 0.00 0.00 95 1009.9
20260506120827 76 134 2.0 4.0 0.00 0.00 0.00 95 1009.9
20260506120336 76 121 2.0 4.0 0.00 0.00 0.00 95 1009.7
20260506115825 76 136 2.0 5.0 0.00 0.00 0.00 95 1009.7
20260506115330 76 189 2.0 5.0 0.00 0.00 0.00 95 1009.7
20260506114839 75 143 2.0 4.0 0.00 0.00 0.00 95 1009.5
20260506114325 75 194 2.0 3.0 0.00 0.00 0.00 95 1009.5
20260506113832 75 194 1.0 3.0 0.00 0.00 0.00 95 1009.5
20260506113337 75 156 1.0 2.0 0.00 0.00 0.00 95 1009.2
20260506112823 75 156 1.0 3.0 0.00 0.00 0.00 95 1009.2
20260506112329 75 156 2.0 4.0 0.00 0.00 0.00 95 1009.2
20260506111837 75 127 2.0 5.0 0.00 0.00 0.00 94 1008.9
20260506111325 75 196 3.0 5.0 0.00 0.00 0.00 94 1008.9
20260506110855 75 140 3.0 5.0 0.00 0.00 0.00 94 1008.9
20260506110339 75 166 3.0 7.0 0.00 0.00 0.00 94 1008.8
20260506105824 75 146 4.0 7.0 0.00 0.00 0.00 94 1008.8
20260506105350 75 198 2.0 4.0 0.00 0.00 0.00 94 1008.8
20260506104835 75 146 2.0 4.0 0.00 0.00 0.00 94 1008.8
20260506104321 75 187 2.0 4.0 0.00 0.00 0.00 93 1008.8
20260506103848 75 137 2.0 4.0 0.00 0.00 0.00 93 1008.8
20260506103333 75 162 3.0 6.0 0.00 0.00 0.00 93 1008.7
20260506102838 75 182 3.0 6.0 0.00 0.00 0.00 93 1008.7
20260506102324 76 163 2.0 5.0 0.00 0.00 0.00 93 1008.7
20260506101832 76 183 4.0 5.0 0.00 0.00 0.00 93 1008.9
20260506101322 76 168 2.0 5.0 0.00 0.00 0.00 93 1008.9
20260506100827 76 179 2.0 6.0 0.00 0.00 0.00 93 1008.9
20260506100336 76 185 3.0 6.0 0.00 0.00 0.00 93 1008.6
20260506095840 76 186 2.0 7.0 0.00 0.00 0.00 92 1008.6
20260506095344 76 156 4.0 7.0 0.00 0.00 0.00 92 1008.6
20260506094831 76 169 3.0 11.0 0.00 0.00 0.00 92 1008.4
20260506094355 76 198 5.0 11.0 0.00 0.00 0.00 92 1008.4
20260506093839 76 185 5.0 9.0 0.00 0.00 0.00 92 1008.4
20260506093345 76 163 1.0 6.0 0.00 0.00 0.00 92 1008.5
20260506092828 76 177 4.0 8.0 0.00 0.00 0.00 92 1008.5
20260506092337 76 190 5.0 10.0 0.00 0.00 0.00 92 1008.5
20260506091840 76 164 5.0 10.0 0.00 0.00 0.00 92 1008.5
20260506091325 77 153 3.0 8.0 0.00 0.00 0.00 91 1008.5
20260506090836 77 162 4.0 9.0 0.00 0.00 0.00 91 1008.5
20260506090341 77 198 6.0 9.0 0.00 0.00 0.00 91 1008.6
20260506085822 77 130 5.0 12.0 0.00 0.00 0.00 91 1008.6
20260506085331 77 179 4.0 12.0 0.00 0.00 0.00 91 1008.6
20260506084836 77 131 4.0 10.0 0.00 0.00 0.00 91 1008.6
20260506084323 77 209 5.0 12.0 0.00 0.00 0.00 91 1008.6
20260506083830 77 140 3.0 12.0 0.00 0.00 0.00 91 1008.6
20260506083338 77 170 4.0 9.0 0.00 0.00 0.00 91 1008.7
20260506082823 77 144 4.0 10.0 0.00 0.00 0.00 91 1008.7
20260506082330 77 154 4.0 10.0 0.00 0.00 0.00 91 1008.7
20260506081821 77 138 4.0 9.0 0.00 0.00 0.00 91 1009.0
20260506081326 77 199 2.0 9.0 0.00 0.00 0.00 91 1009.0
20260506080833 77 140 3.0 7.0 0.00 0.00 0.00 91 1009.0
20260506080337 77 194 4.0 7.0 0.00 0.00 0.00 91 1009.1
20260506073325 77 172 3.0 5.0 0.00 0.00 0.00 91 1009.5
20260506072833 77 142 2.0 5.0 0.00 0.00 0.00 91 1009.5
20260506072322 77 166 3.0 7.0 0.00 0.00 0.00 91 1009.5
20260506071828 77 176 5.0 10.0 0.00 0.00 0.00 91 1009.6
20260506071334 77 154 5.0 10.0 0.00 0.00 0.00 91 1009.6
20260506070841 77 167 5.0 9.0 0.00 0.00 0.00 91 1009.6
20260506070325 77 167 4.0 8.0 0.00 0.00 0.00 91 1009.6
20260506062333 77 153 5.0 10.0 0.00 0.00 0.00 90 1009.6
20260506061841 77 137 4.0 9.0 0.00 0.00 0.00 90 1009.7
20260506061326 77 197 4.0 10.0 0.00 0.00 0.00 90 1009.7
20260506060833 77 149 4.0 11.0 0.00 0.00 0.00 90 1009.7
20260506060319 77 115 4.0 9.0 0.00 0.00 0.00 90 1009.7
20260506051331 77 143 5.0 10.0 0.00 0.00 0.00 89 1009.7
20260506050835 77 136 4.0 12.0 0.00 0.00 0.00 89 1009.7
20260506050340 77 126 8.0 12.0 0.00 0.00 0.00 89 1009.6
20260506044835 78 207 6.0 12.0 0.00 0.00 0.00 89 1009.7
20260506044340 78 171 6.0 12.0 0.00 0.00 0.00 89 1009.7
20260506043824 78 182 5.0 12.0 0.00 0.00 0.00 88 1009.7
20260506043329 78 143 6.0 12.0 0.00 0.00 0.00 88 1009.7
20260506042854 78 156 5.0 13.0 0.00 0.00 0.00 88 1009.7
20260506042323 78 137 3.0 13.0 0.00 0.00 0.00 87 1009.7
20260506041829 78 177 6.0 13.0 0.00 0.00 0.00 87 1009.6
20260506041333 78 167 4.0 11.0 0.00 0.00 0.00 87 1009.6
20260506040838 78 164 4.0 11.0 0.00 0.00 0.00 87 1009.6
20260506040324 78 153 8.0 11.0 0.00 0.00 0.00 87 1009.2
20260506035828 78 191 3.0 11.0 0.00 0.00 0.00 87 1009.2
20260506035336 78 163 4.0 11.0 0.00 0.00 0.00 87 1009.2
20260506034902 78 141 6.0 10.0 0.00 0.00 0.00 86 1009.3
20260506034325 78 179 4.0 10.0 0.00 0.00 0.00 86 1009.3
20260506033829 78 184 5.0 10.0 0.00 0.00 0.00 86 1009.3
20260506033334 78 199 6.0 10.0 0.00 0.00 0.00 86 1009.1
20260506032822 79 137 4.0 8.0 0.00 0.00 0.00 86 1009.1
20260506032327 79 180 4.0 13.0 0.00 0.00 0.00 86 1009.1
20260506031831 79 137 5.0 13.0 0.00 0.00 0.00 86 1008.8
20260506031335 79 184 5.0 12.0 0.00 0.00 0.00 86 1008.8
20260506030840 79 133 4.0 12.0 0.00 0.00 0.00 86 1008.8
20260506030323 79 140 7.0 12.0 0.00 0.00 0.00 86 1008.7
20260506025827 79 169 5.0 12.0 0.00 0.00 0.00 86 1008.7
20260506025331 79 198 3.0 12.0 0.00 0.00 0.00 86 1008.7
20260506024836 79 147 7.0 10.0 0.00 0.00 0.00 86 1008.5
20260506024343 79 195 4.0 15.0 0.00 0.00 0.00 85 1008.5
20260506023827 79 188 9.0 15.0 0.00 0.00 0.00 85 1008.5
20260506023352 79 200 5.0 11.0 0.00 0.00 0.00 85 1008.2
20260506022835 79 179 6.0 11.0 0.00 0.00 0.00 85 1008.2
20260506022341 79 141 6.0 13.0 0.00 0.00 0.00 85 1008.2
20260506021828 79 132 6.0 13.0 0.00 0.00 0.00 85 1008.2
20260506021332 79 138 7.0 13.0 0.00 0.00 0.00 84 1008.2
20260506020840 79 194 5.0 14.0 0.00 0.00 0.00 84 1008.2
20260506020324 79 196 6.0 14.0 0.00 0.00 0.00 84 1008.1
20260506015832 80 192 7.0 11.0 0.00 0.00 0.00 83 1008.1
20260506015336 80 193 4.0 7.0 0.00 0.00 0.00 83 1008.1
20260506014842 80 138 5.0 10.0 0.00 0.00 0.00 83 1007.9
20260506014327 80 125 4.0 11.0 0.00 0.00 0.00 83 1007.9
20260506013853 80 161 4.0 11.0 0.00 0.00 0.00 83 1007.9
20260506013337 80 146 7.0 11.0 0.00 0.00 0.00 83 1007.5
20260506012821 80 151 9.0 11.0 0.00 0.00 0.00 83 1007.5
20260506012328 80 151 6.0 14.0 0.00 0.00 0.00 83 1007.5
20260506011837 80 140 7.0 14.0 0.00 0.00 0.00 82 1007.4
20260506011341 80 177 5.0 10.0 0.00 0.00 0.00 82 1007.4
20260506010825 80 183 4.0 11.0 0.00 0.00 0.00 82 1007.4
20260506010331 80 177 7.0 13.0 0.00 0.00 0.00 82 1007.2
20260506005854 80 134 5.0 13.0 0.00 0.00 0.00 81 1007.2
20260506005339 80 175 3.0 11.0 0.00 0.00 0.00 81 1007.2
20260506004822 80 168 5.0 11.0 0.00 0.00 0.00 81 1007.1
20260506004327 81 154 5.0 11.0 0.00 0.00 0.00 81 1007.1
20260506003831 81 189 5.0 11.0 0.00 0.00 0.00 80 1007.1
20260506003333 81 146 5.0 12.0 0.00 0.00 0.00 80 1007.1
20260506002837 81 149 6.0 12.0 0.00 0.00 0.00 80 1007.1
20260506002321 81 142 3.0 10.0 0.00 0.00 0.00 80 1007.1
20260506001829 81 183 5.0 14.0 0.00 0.00 0.00 80 1007.0
20260506001337 81 182 8.0 14.0 0.00 0.00 0.00 79 1007.0
20260506000829 82 200 7.0 12.0 0.00 0.00 0.00 79 1007.0
20260506000337 82 186 6.0 12.0 0.00 0.00 0.00 78 1007.0
20260505235900 82 195 5.0 16.0 0.00 0.00 0.00 78 1007.0
20260505235343 82 179 6.0 16.0 0.00 0.00 0.00 78 1007.0
20260505234829 82 168 6.0 12.0 0.00 0.00 0.00 78 1007.0
20260505234334 82 159 7.0 19.0 0.00 0.00 0.00 78 1007.0
20260505233839 82 164 8.0 19.0 0.00 0.00 0.00 77 1007.0
20260505233323 82 138 7.0 12.0 0.00 0.00 0.00 78 1007.0
20260505232827 82 179 4.0 12.0 0.00 0.00 0.00 78 1007.0
20260505232331 82 198 6.0 11.0 0.00 0.00 0.00 78 1007.0
20260505231836 82 210 4.0 12.0 0.00 0.00 0.00 78 1007.0
20260505231325 82 175 6.0 13.0 0.00 0.00 0.00 77 1007.0
20260505230833 82 195 7.0 13.0 0.00 0.00 0.00 77 1007.0
20260505230337 83 200 7.0 16.0 0.00 0.00 0.00 77 1007.1
20260505225840 83 189 8.0 16.0 0.00 0.00 0.00 77 1007.1
20260505225324 83 138 3.0 11.0 0.00 0.00 0.00 77 1007.1
20260505224828 83 180 6.0 12.0 0.00 0.00 0.00 77 1007.0
20260505224333 83 255 5.0 15.0 0.00 0.00 0.00 77 1007.0
20260505223838 83 149 6.0 17.0 0.00 0.00 0.00 77 1007.0
20260505223325 83 160 6.0 17.0 0.00 0.00 0.00 77 1007.1
20260505222832 83 144 5.0 17.0 0.00 0.00 0.00 77 1007.1
20260505222335 83 231 5.0 17.0 0.00 0.00 0.00 76 1007.1
20260505221840 84 132 6.0 12.0 0.00 0.00 0.00 76 1007.1
20260505221323 83 158 7.0 12.0 0.00 0.00 0.00 76 1007.1
20260505220835 83 175 6.0 14.0 0.00 0.00 0.00 76 1007.1
20260505220359 83 175 7.0 14.0 0.00 0.00 0.00 76 1007.5
20260505215841 83 190 7.0 14.0 0.00 0.00 0.00 76 1007.5
20260505215325 83 189 6.0 14.0 0.00 0.00 0.00 77 1007.5
20260505214831 83 229 7.0 14.0 0.00 0.00 0.00 76 1007.6
20260505214336 84 186 8.0 14.0 0.00 0.00 0.00 76 1007.6
20260505213841 84 186 4.0 14.0 0.00 0.00 0.00 77 1007.6
20260505213325 83 172 4.0 12.0 0.00 0.00 0.00 77 1007.6
20260505212829 83 217 6.0 13.0 0.00 0.00 0.00 76 1007.6
20260505212334 84 198 4.0 14.0 0.00 0.00 0.00 76 1007.6
20260505211840 84 201 7.0 16.0 0.00 0.00 0.00 76 1007.9
20260505211346 84 198 8.0 16.0 0.00 0.00 0.00 76 1007.9
20260505210834 84 170 6.0 14.0 0.00 0.00 0.00 76 1007.9
20260505210323 84 144 8.0 12.0 0.00 0.00 0.00 76 1008.0
20260505205831 84 203 4.0 12.0 0.00 0.00 0.00 76 1008.0
20260505205334 83 220 4.0 13.0 0.00 0.00 0.00 77 1008.0
20260505204821 84 170 8.0 13.0 0.00 0.00 0.00 76 1008.1
20260505204329 84 120 5.0 12.0 0.00 0.00 0.00 76 1008.1
20260505203836 84 205 9.0 12.0 0.00 0.00 0.00 75 1008.1
20260505203343 85 190 6.0 12.0 0.00 0.00 0.00 74 1008.5
20260505202830 85 168 4.0 12.0 0.00 0.00 0.00 75 1008.5
20260505202338 85 175 7.0 12.0 0.00 0.00 0.00 74 1008.5
20260505201826 84 214 4.0 10.0 0.00 0.00 0.00 76 1008.7
20260505201334 84 195 6.0 12.0 0.00 0.00 0.00 75 1008.7
20260505200825 84 194 7.0 12.0 0.00 0.00 0.00 75 1008.7
20260505200330 84 198 4.0 13.0 0.00 0.00 0.00 75 1008.9
20260505195853 84 192 3.0 13.0 0.00 0.00 0.00 76 1008.9
20260505195336 84 215 7.0 13.0 0.00 0.00 0.00 75 1008.9
20260505194822 83 159 5.0 13.0 0.00 0.00 0.00 75 1009.1
20260505194327 83 170 8.0 12.0 0.00 0.00 0.00 76 1009.1
20260505193852 83 189 6.0 12.0 0.00 0.00 0.00 77 1009.1
20260505193336 83 175 6.0 12.0 0.00 0.00 0.00 77 1009.1
20260505192900 83 207 5.0 12.0 0.00 0.00 0.00 77 1009.1
20260505192403 83 154 5.0 12.0 0.00 0.00 0.00 77 1009.1
20260505191827 83 161 4.0 12.0 0.00 0.00 0.00 78 1009.1
20260505191334 83 127 5.0 11.0 0.00 0.00 0.00 77 1009.1
20260505190837 83 201 6.0 16.0 0.00 0.00 0.00 76 1009.1
20260505190322 84 175 5.0 16.0 0.00 0.00 0.00 74 1009.2
20260505185824 84 180 6.0 11.0 0.00 0.00 0.00 74 1009.2
20260505185330 84 260 6.0 16.0 0.00 0.00 0.00 76 1009.2
20260505184854 83 200 9.0 16.0 0.00 0.00 0.00 76 1009.4
20260505184340 83 215 6.0 14.0 0.00 0.00 0.00 76 1009.4
20260505183824 82 218 6.0 15.0 0.00 0.00 0.00 77 1009.4
20260505183330 82 171 4.0 15.0 0.00 0.00 0.00 78 1009.5
20260505182836 82 127 6.0 14.0 0.00 0.00 0.00 78 1009.5
20260505182340 82 200 5.0 14.0 0.00 0.00 0.00 79 1009.5
20260505181826 82 176 7.0 16.0 0.00 0.00 0.00 78 1009.6
20260505181331 82 184 7.0 16.0 0.00 0.00 0.00 79 1009.6
20260505180836 82 137 4.0 17.0 0.00 0.00 0.00 80 1009.6
20260505180401 81 156 9.0 17.0 0.00 0.00 0.00 80 1009.7
20260505175824 80 191 6.0 12.0 0.00 0.00 0.00 82 1009.7
20260505175348 80 144 5.0 12.0 0.00 0.00 0.00 81 1009.7
20260505174856 81 184 7.0 12.0 0.00 0.00 0.00 80 1009.8
20260505174344 81 189 4.0 10.0 0.00 0.00 0.00 80 1009.8
20260505173827 81 208 3.0 12.0 0.00 0.00 0.00 80 1009.8
20260505173331 80 170 5.0 12.0 0.00 0.00 0.00 80 1009.9
20260505172835 80 192 5.0 11.0 0.00 0.00 0.00 81 1009.9
20260505172401 80 206 4.0 10.0 0.00 0.00 0.00 81 1009.9
20260505171825 80 250 5.0 10.0 0.00 0.00 0.00 81 1010.1
20260505171330 80 168 6.0 12.0 0.00 0.00 0.00 81 1010.1
20260505170837 80 111 6.0 12.0 0.00 0.00 0.00 82 1010.1
20260505170325 80 169 8.0 12.0 0.00 0.00 0.00 82 1010.2
20260505165829 79 189 6.0 11.0 0.00 0.00 0.00 84 1010.2
20260505165335 78 177 3.0 11.0 0.00 0.00 0.00 86 1010.2
20260505164841 78 174 3.0 12.0 0.00 0.00 0.00 88 1010.1
20260505164330 77 196 5.0 9.0 0.00 0.00 0.00 87 1010.1
20260505163854 78 166 5.0 10.0 0.00 0.00 0.00 87 1010.1
20260505163336 78 148 6.0 10.0 0.00 0.00 0.00 85 1009.9
20260505162841 79 199 4.0 11.0 0.00 0.00 0.00 85 1009.9
20260505162325 79 174 5.0 12.0 0.00 0.00 0.00 85 1009.9
20260505161832 78 217 3.0 12.0 0.00 0.00 0.00 85 1009.9
20260505161337 78 194 6.0 11.0 0.00 0.00 0.00 85 1009.9
20260505160901 78 168 5.0 13.0 0.00 0.00 0.00 85 1009.9
20260505160324 78 180 3.0 13.0 0.00 0.00 0.00 85 1009.8
20260505153336 77 153 6.0 14.0 0.00 0.00 0.00 87 1009.6
20260505152822 77 146 4.0 13.0 0.00 0.00 0.00 87 1009.6
20260505152348 77 170 8.0 13.0 0.00 0.00 0.00 87 1009.6
20260505151851 77 189 5.0 13.0 0.00 0.00 0.00 87 1009.6
20260505151354 77 168 5.0 14.0 0.00 0.00 0.00 87 1009.6